TimeCDT,TemperatureF,Dew PointF,Humidity,Sea Level PressureIn,VisibilityMPH,Wind Direction,Wind SpeedMPH,Gust SpeedMPH,PrecipitationIn,Events,Conditions,WindDirDegrees,DateUTC
12:53 AM,73.9,72.0,93,29.96,5.0,Calm,Calm,-,N/A,,Clear,0,2013-08-02 05:53:00
1:53 AM,73.9,72.0,93,29.94,7.0,Calm,Calm,-,N/A,,Mostly Cloudy,0,2013-08-02 06:53:00
2:53 AM,73.9,72.0,93,29.94,6.0,Calm,Calm,-,N/A,,Partly Cloudy,0,2013-08-02 07:53:00
3:53 AM,73.9,72.0,93,29.95,9.0,Calm,Calm,-,N/A,,Mostly Cloudy,0,2013-08-02 08:53:00
4:53 AM,73.0,71.1,93,29.95,6.0,Calm,Calm,-,N/A,,Partly Cloudy,0,2013-08-02 09:53:00
5:53 AM,73.0,71.1,93,29.97,9.0,Calm,Calm,-,N/A,,Clear,0,2013-08-02 10:53:00
6:53 AM,72.0,71.1,97,29.99,5.0,Calm,Calm,-,0.01,,Clear,0,2013-08-02 11:53:00
7:53 AM,77.0,73.9,90,29.99,8.0,Calm,Calm,-,N/A,,Clear,0,2013-08-02 12:53:00
8:53 AM,82.0,73.9,76,29.98,7.0,Calm,Calm,-,N/A,,Clear,0,2013-08-02 13:53:00
9:53 AM,84.9,73.9,69,30.00,8.0,SSE,4.6,-,N/A,,Clear,160,2013-08-02 14:53:00
10:53 AM,87.1,73.9,65,30.00,10.0,Variable,4.6,-,N/A,,Clear,0,2013-08-02 15:53:00
11:53 AM,89.1,73.0,59,30.00,10.0,South,4.6,-,N/A,,Clear,180,2013-08-02 16:53:00
12:53 PM,89.1,72.0,57,30.00,10.0,Variable,3.5,-,N/A,,Mostly Cloudy,0,2013-08-02 17:53:00
1:53 PM,91.0,71.1,52,29.99,10.0,SSW,3.5,-,N/A,,Mostly Cloudy,210,2013-08-02 18:53:00
2:53 PM,93.0,71.1,49,29.97,10.0,NE,3.5,-,N/A,,Mostly Cloudy,50,2013-08-02 19:53:00
3:53 PM,91.9,70.0,48,29.95,10.0,Calm,Calm,-,N/A,,Partly Cloudy,0,2013-08-02 20:53:00
4:53 PM,91.0,72.0,53,29.95,10.0,South,4.6,-,N/A,,Clear,180,2013-08-02 21:53:00
5:26 PM,87.8,73.4,62,29.96,10.0,West,5.8,-,N/A,Thunderstorm,Scattered Clouds,270,2013-08-02 22:26:00
5:41 PM,87.8,75.2,66,29.97,10.0,WNW,3.5,-,N/A,,Partly Cloudy,290,2013-08-02 22:41:00
5:53 PM,88.0,73.9,63,29.96,10.0,NNW,11.5,17.3,N/A,,Partly Cloudy,330,2013-08-02 22:53:00
6:53 PM,84.0,71.1,65,29.96,10.0,Calm,Calm,-,N/A,,Partly Cloudy,0,2013-08-02 23:53:00
7:53 PM,82.9,72.0,69,29.97,10.0,NNE,3.5,-,N/A,,Partly Cloudy,20,2013-08-03 00:53:00
8:53 PM,79.0,73.0,82,29.98,10.0,Calm,Calm,-,N/A,,Clear,0,2013-08-03 01:53:00
9:53 PM,78.1,73.9,87,30.00,10.0,Calm,Calm,-,N/A,,Clear,0,2013-08-03 02:53:00
10:53 PM,77.0,73.9,90,30.01,10.0,Calm,Calm,-,N/A,,Clear,0,2013-08-03 03:53:00
11:53 PM,77.0,73.9,90,30.01,7.0,Calm,Calm,-,N/A,,Clear,0,2013-08-03 04:53:00